INTELSAT 36 (IS-36)

Last updated on Sat Aug 15 2026 00:03:00 GMT+0000 (Coordinated Universal Time)

1 41747U 16053A 26226.58148946 -.00000040 00000+0 00000+0 0 9994 2 41747 0.0116 59.4039 0002126 288.2375 253.1795 1.00272731 36542
UTC large
Height (km)
Speed (km/s)
/
Latitude / Longitude
Inclination (degrees)
Orbital Period (minutes)
Azimuth
Elevation
Range (km)
Doppler Factor

Next 0 passes for location: London (51.5072 / 0.1276)

No passes found over London.
INTELSAT 36 (IS-36)